Location: St. Louis
(38.6270°N, 90.1994°W)
Time: 07:32:31
(UTC-06:00)

Transit 2A - Pass Details

Date: 06 December 2021
Orbit: 591 x 967 km, 66.7° (Epoch: 20 January)

Event Time Altitude Azimuth Distance (km) Brightness Sun altitude
Rises 01:37:35 0° 276° (W) 3,415 - -62.3°
Reaches altitude 10° 01:42:30 10° 312° (NW) 2,580 - -61.4°
Maximum altitude 01:43:53 11° 326° (NW) 2,549 - -61.2°
Drops below altitude 10° 01:45:19 10° 340° (NNW) 2,627 - -60.9°
Sets 01:50:33 0° 16° (NNE) 3,636 - -60.0°
